2023/09/19 00:00:00,56.9,20.2
2023/09/19 00:10:00,56.9,20.0
2023/09/19 00:20:00,56.9,19.9
2023/09/19 00:30:00,57.0,19.8
2023/09/19 00:40:00,57.0,19.7
2023/09/19 00:50:00,57.0,19.8
2023/09/19 01:00:00,57.0,19.7
2023/09/19 01:10:00,57.0,19.6
2023/09/19 01:20:00,57.0,19.5
2023/09/19 01:30:00,57.0,19.6
2023/09/19 01:40:00,57.0,19.6
2023/09/19 01:50:00,56.9,19.8
2023/09/19 02:00:00,56.9,19.9
2023/09/19 02:10:00,57.0,19.8
2023/09/19 02:20:00,57.1,19.9
2023/09/19 02:30:00,57.1,19.8
2023/09/19 02:40:00,57.0,19.9
2023/09/19 02:50:00,57.2,20.0
2023/09/19 03:00:00,57.2,19.7
2023/09/19 03:10:00,57.1,20.0
2023/09/19 03:20:00,57.2,19.2
2023/09/19 03:30:00,57.2,19.9
2023/09/19 03:40:00,57.1,19.9
2023/09/19 03:50:00,57.2,19.8
2023/09/19 04:00:00,57.2,19.8
2023/09/19 04:10:00,57.1,19.5
2023/09/19 04:20:00,57.2,19.7
2023/09/19 04:30:00,57.2,19.8
2023/09/19 04:40:00,57.2,19.7
2023/09/19 04:50:00,57.2,19.7
2023/09/19 05:00:00,57.2,19.6
2023/09/19 05:10:00,57.3,19.8
2023/09/19 05:20:00,57.2,19.7
2023/09/19 05:30:00,57.3,19.7
2023/09/19 05:40:00,57.3,19.7
2023/09/19 05:50:00,57.3,19.8
2023/09/19 06:00:00,57.2,19.9
2023/09/19 06:10:00,57.2,19.8
2023/09/19 06:20:00,57.3,19.8
2023/09/19 06:30:00,57.3,19.6
2023/09/19 06:40:00,57.4,19.8
2023/09/19 06:50:00,57.3,19.8
2023/09/19 07:00:00,57.3,20.0
2023/09/19 07:10:00,57.3,20.0
2023/09/19 07:20:00,57.3,20.3
2023/09/19 07:30:00,57.2,20.4
2023/09/19 07:40:00,57.2,20.5
2023/09/19 07:50:00,57.3,20.8
2023/09/19 08:00:00,57.3,21.4
2023/09/19 08:10:00,57.3,21.2
2023/09/19 08:20:00,57.3,21.6
2023/09/19 08:30:00,57.4,22.1
2023/09/19 08:40:00,57.4,23.0
2023/09/19 08:50:00,57.2,23.2
2023/09/19 09:00:00,57.2,23.7
2023/09/19 09:10:00,57.2,23.6
2023/09/19 09:20:00,57.0,24.7
2023/09/19 09:30:00,56.8,24.6
2023/09/19 09:40:00,57.0,23.7
2023/09/19 09:50:00,57.2,24.0
2023/09/19 10:00:00,57.4,23.5
2023/09/19 10:10:00,57.4,23.6
2023/09/19 10:20:00,57.4,23.3
2023/09/19 10:30:00,57.4,23.1
2023/09/19 10:40:00,57.4,25.6
2023/09/19 10:50:00,57.2,27.0
2023/09/19 11:00:00,56.7,25.4
2023/09/19 11:10:00,57.0,24.9
2023/09/19 11:20:00,56.7,25.8
2023/09/19 11:30:00,56.7,25.8
2023/09/19 11:40:00,56.3,26.2
2023/09/19 11:50:00,55.6,28.5
2023/09/19 12:00:00,---,28.7
2023/09/19 12:10:00,---,28.3
2023/09/19 12:20:00,---,29.7
2023/09/19 12:30:00, 0.2,28.5
2023/09/19 12:40:00, 0.5,27.6
2023/09/19 12:50:00,40.6,26.5
2023/09/19 13:00:00,54.9,27.4
2023/09/19 13:10:00,54.7,27.8
2023/09/19 13:20:00,52.7,27.2
2023/09/19 13:30:00,54.6,26.1
2023/09/19 13:40:00,54.7,27.5
2023/09/19 13:50:00,52.8,27.8
2023/09/19 14:00:00,---,28.4
2023/09/19 14:10:00,---,28.2
2023/09/19 14:20:00, 0.2,26.8
2023/09/19 14:30:00,36.1,26.3
2023/09/19 14:40:00,54.6,27.0
2023/09/19 14:50:00,---,27.5
2023/09/19 15:00:00,14.2,28.6
2023/09/19 15:10:00, 3.5,27.7
2023/09/19 15:20:00,54.6,25.7
2023/09/19 15:30:00,55.7,25.4
2023/09/19 15:40:00,55.9,24.6
2023/09/19 15:50:00,56.5,24.9
2023/09/19 16:00:00,56.4,25.9
2023/09/19 16:10:00,55.8,25.7
2023/09/19 16:20:00,56.3,25.6
2023/09/19 16:30:00,56.3,25.1
2023/09/19 16:40:00,56.6,24.3
2023/09/19 16:50:00,56.6,24.4
2023/09/19 17:00:00,56.8,24.2
2023/09/19 17:10:00,56.8,24.1
2023/09/19 17:20:00,56.8,24.0
2023/09/19 17:30:00,56.8,23.7
2023/09/19 17:40:00,56.9,24.0
2023/09/19 17:50:00,56.9,23.5
2023/09/19 18:00:00,57.0,23.3
2023/09/19 18:10:00,57.1,23.1
2023/09/19 18:20:00,57.1,22.4
2023/09/19 18:30:00,57.2,22.9
2023/09/19 18:40:00,57.2,22.6
2023/09/19 18:50:00,57.3,22.8
2023/09/19 19:00:00,57.4,22.0
2023/09/19 19:10:00,57.4,23.0
2023/09/19 19:20:00,57.4,22.3
2023/09/19 19:30:00,57.4,22.0
2023/09/19 19:40:00,57.4,22.0
2023/09/19 19:50:00,57.4,22.0
2023/09/19 20:00:00,57.4,22.1
2023/09/19 20:10:00,57.4,21.9
2023/09/19 20:20:00,57.4,22.0
2023/09/19 20:30:00,57.4,21.9
2023/09/19 20:40:00,57.5,21.6
2023/09/19 20:50:00,57.5,21.9
2023/09/19 21:00:00,57.5,21.7
2023/09/19 21:10:00,57.5,21.8
2023/09/19 21:20:00,57.5,21.7
2023/09/19 21:30:00,57.4,21.5
2023/09/19 21:40:00,57.5,21.3
2023/09/19 21:50:00,57.5,21.3
2023/09/19 22:00:00,57.6,21.0
2023/09/19 22:10:00,57.5,20.9
2023/09/19 22:20:00,57.5,20.4
2023/09/19 22:30:00,57.5,20.5
2023/09/19 22:40:00,57.5,20.5
2023/09/19 22:50:00,57.5,20.5
2023/09/19 23:00:00,57.5,20.6
2023/09/19 23:10:00,57.5,20.4
2023/09/19 23:20:00,57.5,20.4
2023/09/19 23:30:00,57.5,20.6
2023/09/19 23:40:00,57.5,20.3
2023/09/19 23:50:00,57.5,20.0
